This is the latest recevied weather packets stored in our database for station/object KJ4EWA. If no packets are shown the sender has not sent any weather packets the latest 10 day(s).
| Time | Temp. | Humidity | Pressure | Rain* | Wind** | Luminosity | Snow |
|---|---|---|---|---|---|---|---|
| 1778115397 | 23.89° C | 99% | 1016 hPa | 0 mm | - | 0 W/m² | - |
| 1778115093 | 23.89° C | 99% | 1015.7 hPa | 0 mm | - | 0 W/m² | - |
| 1778114790 | 23.89° C | 99% | 1016 hPa | 0 mm | - | 0 W/m² | - |
| 1778114488 | 24.44° C | 99% | 1015.9 hPa | 0 mm | - | 0 W/m² | - |
| 1778114184 | 23.89° C | 99% | 1016.3 hPa | 0 mm | - | 0 W/m² | - |
| 1778113879 | 23.89° C | 99% | 1016.4 hPa | 0 mm | - | 0 W/m² | - |
| 1778113576 | 23.89° C | 99% | 1016.5 hPa | 0 mm | - | 0 W/m² | - |
| 1778113271 | 24.44° C | 99% | 1016.5 hPa | 0 mm | - | 0 W/m² | - |
| 1778112968 | 23.89° C | 99% | 1016.1 hPa | 0 mm | - | 0 W/m² | - |
| 1778112666 | 24.44° C | 99% | 1015.9 hPa | 0 mm | - | 1 W/m² | - |
| 1778112362 | 23.89° C | 99% | 1015.9 hPa | 0 mm | - | 1 W/m² | - |
| 1778112058 | 23.89° C | 99% | 1015.6 hPa | 0 mm | - | 0 W/m² | - |
| 1778111755 | 24.44° C | 99% | 1016 hPa | 0 mm | - | 2 W/m² | - |
| 1778111450 | 24.44° C | 98% | 1015.9 hPa | 0 mm | - | 0 W/m² | - |
| 1778111148 | 24.44° C | 98% | 1016 hPa | 0 mm | - | 1 W/m² | - |
| 1778110845 | 24.44° C | 98% | 1016 hPa | 0 mm | - | 2 W/m² | - |
| 1778110542 | 24.44° C | 98% | 1015.8 hPa | 0 mm | - | 4 W/m² | - |
| 1778110239 | 24.44° C | 99% | 1015.7 hPa | 0 mm | - | 9 W/m² | - |
| 1778109935 | 24.44° C | 98% | 1015.7 hPa | 0 mm | - | 23 W/m² | - |
| 1778109630 | 24.44° C | 98% | 1015.6 hPa | 0 mm | - | 16 W/m² | - |
| 1778109328 | 24.44° C | 98% | 1015.6 hPa | 0 mm | - | 21 W/m² | - |
| 1778109026 | 24.44° C | 98% | 1015.7 hPa | 0 mm | - | 18 W/m² | - |
| 1778108722 | 24.44° C | 98% | 1015.9 hPa | 0 mm | - | 16 W/m² | - |
| 1778108420 | 24.44° C | 98% | 1015.9 hPa | 0 mm | - | 23 W/m² | - |
| 1778108117 | 24.44° C | 99% | 1015.9 hPa | 0 mm | - | 27 W/m² | - |
* Rain latest hour (hover to see other rain measurements)
** Current wind speed in m/s (hover to see current wind gust speed)